This is the latest recevied weather packets stored in our database for station/object AA5QJ. If no packets are shown the sender has not sent any weather packets the latest 10 day(s).
| Time | Temp. | Humidity | Pressure | Rain* | Wind** | Luminosity | Snow |
|---|---|---|---|---|---|---|---|
| 1777420213 | 11.11° C | 30% | 1013.2 hPa | 0 mm | - | - | - |
| 1777419913 | 12.22° C | 30% | 1012.9 hPa | 0 mm | - | - | - |
| 1777419613 | 16.11° C | 30% | 1013.6 hPa | 0 mm | - | - | - |
| 1777419312 | 16.67° C | 30% | 1013.6 hPa | 0 mm | - | - | - |
| 1777419012 | 17.22° C | 29% | 1013.2 hPa | 0 mm | - | - | - |
| 1777418712 | 17.78° C | 29% | 1013.2 hPa | 0 mm | - | - | - |
| 1777418412 | 17.22° C | 29% | 1013.2 hPa | 0 mm | - | - | - |
| 1777418114 | 17.22° C | 30% | 1013.6 hPa | 0 mm | - | - | - |
| 1777417814 | 17.22° C | 30% | 1013.2 hPa | 0 mm | - | - | - |
| 1777417514 | 17.22° C | 31% | 1013.6 hPa | 0 mm | - | - | - |
| 1777417213 | 16.67° C | 31% | 1013.6 hPa | 0 mm | - | - | - |
| 1777416913 | 16.67° C | 31% | 1013.9 hPa | 0 mm | - | - | - |
| 1777416613 | 16.67° C | 31% | 1013.9 hPa | 0 mm | - | - | - |
| 1777416313 | 16.67° C | 31% | 1013.9 hPa | 0 mm | - | - | - |
| 1777416013 | 16.67° C | 31% | 1013.9 hPa | 0 mm | - | - | - |
| 1777415713 | 16.67° C | 31% | 1014.3 hPa | 0 mm | - | - | - |
| 1777415413 | 16.67° C | 31% | 1013.9 hPa | 0 mm | - | - | - |
| 1777415113 | 16.11° C | 32% | 1013.9 hPa | 0 mm | - | - | - |
| 1777414813 | 16.67° C | 32% | 1014.3 hPa | 0 mm | - | - | - |
| 1777414512 | -1.11° C | 32% | 1014.3 hPa | 0 mm | - | - | - |
| 1777414212 | -1.11° C | 32% | 1014.3 hPa | 0 mm | - | - | - |
| 1777413912 | -1.11° C | 32% | 1014.3 hPa | 0 mm | - | - | - |
| 1777413614 | -2.22° C | 32% | 1014.6 hPa | 0 mm | - | - | - |
| 1777413314 | -9.44° C | 32% | 1014.6 hPa | 0 mm | - | - | - |
| 1777413014 | 11.11° C | 32% | 1014.9 hPa | 0 mm | - | - | - |
* Rain latest hour (hover to see other rain measurements)
** Current wind speed in m/s (hover to see current wind gust speed)